Time,TemperatureF,DewpointF,PressureIn,WindDirection,WindDirectionDegrees,WindSpeedMPH,WindSpeedGustMPH,Humidity,HourlyPrecipIn,Conditions,Clouds,dailyrainin,SoftwareType,DateUTC
2013-01-09 00:03:00,33.0,27.0,30.39,WSW,249,0.0,-999.0,77,-99.99,,,-99.99,,2013-01-09 05:03:00,
2013-01-09 00:12:00,33.0,27.0,30.39,WSW,249,0.0,-999.0,77,-99.99,,,-99.99,,2013-01-09 05:12:00,
2013-01-09 00:22:00,32.0,26.0,30.39,WSW,248,0.0,-999.0,77,-99.99,,,-99.99,,2013-01-09 05:22:00,
2013-01-09 00:33:00,32.0,26.0,30.39,WSW,248,0.0,-999.0,77,-99.99,,,-99.99,,2013-01-09 05:33:00,
2013-01-09 00:42:00,32.0,26.0,30.39,WSW,248,0.0,-999.0,77,-99.99,,,-99.99,,2013-01-09 05:42:00,
2013-01-09 00:52:00,32.0,26.0,30.38,WSW,249,0.0,-999.0,77,-99.99,,,-99.99,,2013-01-09 05:52:00,
2013-01-09 01:02:00,32.0,26.0,30.38,WSW,249,0.0,-999.0,77,-99.99,,,-99.99,,2013-01-09 06:02:00,
2013-01-09 01:12:00,32.0,26.0,30.38,WSW,249,0.0,-999.0,77,-99.99,,,-99.99,,2013-01-09 06:12:00,
2013-01-09 01:22:00,31.0,25.0,30.38,WSW,249,0.0,-999.0,78,-99.99,,,-99.99,,2013-01-09 06:22:00,
2013-01-09 01:32:00,31.0,25.0,30.38,WSW,249,0.0,-999.0,78,-99.99,,,-99.99,,2013-01-09 06:32:00,
2013-01-09 01:42:00,31.0,25.0,30.38,WSW,249,0.0,-999.0,78,-99.99,,,-99.99,,2013-01-09 06:42:00,
2013-01-09 01:52:00,30.0,25.0,30.38,WSW,248,0.0,-999.0,81,-99.99,,,-99.99,,2013-01-09 06:52:00,
2013-01-09 02:02:00,30.0,25.0,30.38,WSW,249,0.0,-999.0,80,-99.99,,,-99.99,,2013-01-09 07:02:00,
2013-01-09 02:12:00,30.0,25.0,30.38,WSW,249,0.0,-999.0,80,-99.99,,,-99.99,,2013-01-09 07:12:00,
2013-01-09 02:22:00,30.0,25.0,30.39,WSW,249,0.0,-999.0,81,-99.99,,,-99.99,,2013-01-09 07:22:00,
2013-01-09 02:32:00,30.0,25.0,30.39,WSW,249,0.0,-999.0,81,-99.99,,,-99.99,,2013-01-09 07:32:00,
2013-01-09 02:42:00,30.0,25.0,30.39,WSW,249,0.0,-999.0,81,-99.99,,,-99.99,,2013-01-09 07:42:00,
2013-01-09 02:52:00,30.0,25.0,30.39,WSW,249,0.0,-999.0,81,-99.99,,,-99.99,,2013-01-09 07:52:00,
2013-01-09 03:02:00,29.0,24.0,30.39,WSW,248,0.0,-999.0,82,-99.99,,,-99.99,,2013-01-09 08:02:00,
2013-01-09 03:12:00,29.0,24.0,30.39,WSW,248,0.0,-999.0,82,-99.99,,,-99.99,,2013-01-09 08:12:00,
2013-01-09 03:22:00,29.0,24.0,30.39,WSW,249,0.0,-999.0,82,-99.99,,,-99.99,,2013-01-09 08:22:00,
2013-01-09 03:32:00,29.0,24.0,30.39,WSW,249,0.0,-999.0,82,-99.99,,,-99.99,,2013-01-09 08:32:00,
2013-01-09 03:42:00,29.0,24.0,30.39,WSW,249,0.0,-999.0,82,-99.99,,,-99.99,,2013-01-09 08:42:00,
2013-01-09 03:53:00,29.0,25.0,30.39,WSW,249,0.0,-999.0,83,-99.99,,,-99.99,,2013-01-09 08:53:00,
2013-01-09 04:02:00,29.0,25.0,30.39,WSW,249,0.0,-999.0,83,-99.99,,,-99.99,,2013-01-09 09:02:00,
2013-01-09 04:12:00,29.0,25.0,30.39,WSW,249,0.0,-999.0,83,-99.99,,,-99.99,,2013-01-09 09:12:00,
2013-01-09 04:22:00,27.0,23.0,30.38,WSW,248,0.0,-999.0,83,-99.99,,,-99.99,,2013-01-09 09:22:00,
2013-01-09 04:32:00,26.0,22.0,30.38,WSW,248,0.0,-999.0,84,-99.99,,,-99.99,,2013-01-09 09:32:00,
2013-01-09 04:42:00,26.0,22.0,30.38,WSW,248,0.0,-999.0,84,-99.99,,,-99.99,,2013-01-09 09:42:00,
2013-01-09 04:53:00,25.0,21.0,30.37,WSW,249,0.0,-999.0,86,-99.99,,,-99.99,,2013-01-09 09:53:00,
2013-01-09 05:02:00,25.0,22.0,30.37,WSW,249,0.0,-999.0,88,-99.99,,,-99.99,,2013-01-09 10:02:00,
2013-01-09 05:12:00,25.0,22.0,30.37,WSW,249,0.0,-999.0,88,-99.99,,,-99.99,,2013-01-09 10:12:00,
2013-01-09 05:22:00,26.0,23.0,30.37,WSW,249,0.0,-999.0,88,-99.99,,,-99.99,,2013-01-09 10:22:00,
2013-01-09 05:32:00,26.0,23.0,30.37,WSW,249,0.0,-999.0,88,-99.99,,,-99.99,,2013-01-09 10:32:00,
2013-01-09 05:42:00,26.0,23.0,30.37,WSW,249,0.0,-999.0,88,-99.99,,,-99.99,,2013-01-09 10:42:00,
2013-01-09 05:52:00,26.0,23.0,30.38,WSW,248,0.0,-999.0,88,-99.99,,,-99.99,,2013-01-09 10:52:00,
2013-01-09 06:02:00,26.0,23.0,30.38,WSW,248,0.0,-999.0,88,-99.99,,,-99.99,,2013-01-09 11:02:00,
2013-01-09 06:12:00,26.0,23.0,30.38,WSW,248,0.0,-999.0,88,-99.99,,,-99.99,,2013-01-09 11:12:00,
2013-01-09 06:22:00,25.0,22.0,30.38,WSW,249,0.0,-999.0,88,-99.99,,,-99.99,,2013-01-09 11:22:00,
2013-01-09 06:33:00,25.0,22.0,30.39,WSW,249,0.0,-999.0,88,-99.99,,,-99.99,,2013-01-09 11:33:00,
2013-01-09 06:42:00,25.0,22.0,30.39,WSW,249,0.0,-999.0,88,-99.99,,,-99.99,,2013-01-09 11:42:00,
2013-01-09 06:52:00,25.0,22.0,30.39,WSW,249,0.0,-999.0,89,-99.99,,,-99.99,,2013-01-09 11:52:00,
2013-01-09 07:03:00,25.0,22.0,30.39,WSW,248,0.0,-999.0,89,-99.99,,,-99.99,,2013-01-09 12:03:00,
2013-01-09 07:12:00,25.0,22.0,30.39,WSW,248,0.0,-999.0,89,-99.99,,,-99.99,,2013-01-09 12:12:00,
2013-01-09 07:23:00,25.0,22.0,30.38,WSW,249,0.0,-999.0,88,-99.99,,,-99.99,,2013-01-09 12:23:00,
2013-01-09 07:33:00,25.0,22.0,30.38,WSW,248,0.0,-999.0,89,-99.99,,,-99.99,,2013-01-09 12:33:00,
2013-01-09 07:43:00,25.0,22.0,30.38,WSW,248,0.0,-999.0,89,-99.99,,,-99.99,,2013-01-09 12:43:00,
2013-01-09 07:52:00,25.0,22.0,30.39,WSW,249,0.0,-999.0,90,-99.99,,,-99.99,,2013-01-09 12:52:00,
2013-01-09 08:03:00,25.0,22.0,30.39,WSW,249,0.0,-999.0,90,-99.99,,,-99.99,,2013-01-09 13:03:00,
2013-01-09 08:12:00,25.0,22.0,30.39,WSW,249,0.0,-999.0,90,-99.99,,,-99.99,,2013-01-09 13:12:00,
2013-01-09 08:23:00,25.0,22.0,30.39,WSW,248,0.0,-999.0,90,-99.99,,,-99.99,,2013-01-09 13:23:00,
2013-01-09 08:33:00,26.0,23.0,30.39,WSW,248,0.0,-999.0,90,-99.99,,,-99.99,,2013-01-09 13:33:00,
2013-01-09 08:43:00,26.0,23.0,30.39,WSW,248,0.0,-999.0,90,-99.99,,,-99.99,,2013-01-09 13:43:00,
2013-01-09 08:52:00,26.0,23.0,30.39,WSW,249,0.0,-999.0,90,-99.99,,,-99.99,,2013-01-09 13:52:00,
2013-01-09 09:03:00,26.0,23.0,30.39,WSW,249,0.0,-999.0,89,-99.99,,,-99.99,,2013-01-09 14:03:00,
2013-01-09 09:12:00,27.0,24.0,30.38,WSW,249,0.0,-999.0,89,-99.99,,,-99.99,,2013-01-09 14:12:00,
2013-01-09 09:23:00,27.0,24.0,30.38,WSW,249,0.0,-999.0,89,-99.99,,,-99.99,,2013-01-09 14:23:00,
2013-01-09 09:33:00,27.0,24.0,30.38,WSW,249,0.0,-999.0,89,-99.99,,,-99.99,,2013-01-09 14:33:00,
2013-01-09 09:43:00,27.0,24.0,30.38,WSW,249,0.0,-999.0,89,-99.99,,,-99.99,,2013-01-09 14:43:00,
2013-01-09 09:53:00,29.0,26.0,30.38,WSW,248,0.0,-999.0,87,-99.99,,,-99.99,,2013-01-09 14:53:00,
2013-01-09 10:03:00,30.0,26.0,30.38,WSW,249,0.0,-999.0,86,-99.99,,,-99.99,,2013-01-09 15:03:00,
2013-01-09 10:13:00,30.0,26.0,30.38,WSW,249,0.0,-999.0,86,-99.99,,,-99.99,,2013-01-09 15:13:00,
2013-01-09 10:23:00,31.0,26.0,30.38,WSW,249,0.0,-999.0,82,-99.99,,,-99.99,,2013-01-09 15:23:00,
2013-01-09 10:33:00,32.0,27.0,30.37,WSW,249,0.0,-999.0,81,-99.99,,,-99.99,,2013-01-09 15:33:00,
2013-01-09 10:43:00,32.0,27.0,30.37,WSW,249,0.0,-999.0,81,-99.99,,,-99.99,,2013-01-09 15:43:00,
2013-01-09 10:53:00,33.0,28.0,30.36,WSW,249,0.0,-999.0,81,-99.99,,,-99.99,,2013-01-09 15:53:00,
2013-01-09 11:03:00,34.0,28.0,30.35,WSW,248,0.0,-999.0,79,-99.99,,,-99.99,,2013-01-09 16:03:00,
2013-01-09 11:12:00,34.0,28.0,30.35,WSW,248,0.0,-999.0,79,-99.99,,,-99.99,,2013-01-09 16:12:00,
2013-01-09 11:23:00,34.0,28.0,30.34,WSW,249,0.0,-999.0,78,-99.99,,,-99.99,,2013-01-09 16:23:00,
2013-01-09 11:33:00,36.0,28.0,30.31,WSW,248,0.0,-999.0,73,-99.99,,,-99.99,,2013-01-09 16:33:00,
2013-01-09 11:43:00,36.0,28.0,30.31,WSW,248,0.0,-999.0,73,-99.99,,,-99.99,,2013-01-09 16:43:00,
2013-01-09 11:52:00,37.0,28.0,30.30,WSW,249,0.0,-999.0,71,-99.99,,,-99.99,,2013-01-09 16:52:00,
2013-01-09 12:03:00,37.0,27.0,30.27,WSW,243,1.0,-999.0,67,-99.99,,,-99.99,,2013-01-09 17:03:00,
2013-01-09 12:12:00,37.0,27.0,30.27,WSW,243,1.0,-999.0,67,-99.99,,,-99.99,,2013-01-09 17:12:00,
2013-01-09 12:23:00,37.0,27.0,30.27,WSW,243,1.0,-999.0,67,-99.99,,,-99.99,,2013-01-09 17:23:00,
2013-01-09 12:33:00,38.0,28.0,30.28,WSW,239,0.0,-999.0,66,-99.99,,,-99.99,,2013-01-09 17:33:00,
2013-01-09 12:43:00,38.0,28.0,30.28,WSW,239,0.0,-999.0,66,-99.99,,,-99.99,,2013-01-09 17:43:00,
2013-01-09 12:53:00,39.0,27.0,30.27,SW,229,2.0,-999.0,63,-99.99,,,-99.99,,2013-01-09 17:53:00,
2013-01-09 13:03:00,40.0,28.0,30.26,WSW,247,2.0,-999.0,61,-99.99,,,-99.99,,2013-01-09 18:03:00,
2013-01-09 13:12:00,40.0,28.0,30.26,WSW,247,2.0,-999.0,61,-99.99,,,-99.99,,2013-01-09 18:12:00,
2013-01-09 13:24:00,41.0,28.0,30.24,SSW,207,2.0,-999.0,60,-99.99,,,-99.99,,2013-01-09 18:24:00,
2013-01-09 13:33:00,42.0,30.0,30.25,SSW,210,0.0,-999.0,62,-99.99,,,-99.99,,2013-01-09 18:33:00,
2013-01-09 13:43:00,42.0,30.0,30.25,SSW,210,0.0,-999.0,62,-99.99,,,-99.99,,2013-01-09 18:43:00,
2013-01-09 13:53:00,42.0,31.0,30.25,SW,224,1.0,-999.0,64,-99.99,,,-99.99,,2013-01-09 18:53:00,
2013-01-09 14:03:00,41.0,31.0,30.25,SSW,204,3.0,-999.0,67,-99.99,,,-99.99,,2013-01-09 19:03:00,
2013-01-09 14:13:00,41.0,31.0,30.25,SSW,204,3.0,-999.0,67,-99.99,,,-99.99,,2013-01-09 19:13:00,
2013-01-09 14:23:00,41.0,32.0,30.23,West,259,2.0,-999.0,70,-99.99,,,-99.99,,2013-01-09 19:23:00,
2013-01-09 14:33:00,41.0,33.0,30.22,SW,234,3.0,-999.0,72,-99.99,,,-99.99,,2013-01-09 19:33:00,
2013-01-09 14:43:00,41.0,33.0,30.22,SW,234,3.0,-999.0,72,-99.99,,,-99.99,,2013-01-09 19:43:00,
2013-01-09 14:52:00,41.0,33.0,30.20,SW,220,3.0,-999.0,72,-99.99,,,-99.99,,2013-01-09 19:52:00,
2013-01-09 15:03:00,41.0,33.0,30.19,WSW,237,2.0,-999.0,73,-99.99,,,-99.99,,2013-01-09 20:03:00,
2013-01-09 15:12:00,41.0,33.0,30.19,WSW,237,2.0,-999.0,73,-99.99,,,-99.99,,2013-01-09 20:12:00,
2013-01-09 15:23:00,41.0,33.0,30.17,SSW,206,2.0,-999.0,74,-99.99,,,-99.99,,2013-01-09 20:23:00,
2013-01-09 15:33:00,41.0,34.0,30.15,SW,218,2.0,-999.0,75,-99.99,,,-99.99,,2013-01-09 20:33:00,
2013-01-09 15:43:00,41.0,34.0,30.15,SW,218,2.0,-999.0,75,-99.99,,,-99.99,,2013-01-09 20:43:00,
2013-01-09 15:53:00,40.0,33.0,30.14,WSW,253,2.0,-999.0,76,-99.99,,,-99.99,,2013-01-09 20:53:00,
2013-01-09 16:03:00,40.0,33.0,30.13,SSW,211,2.0,-999.0,75,-99.99,,,-99.99,,2013-01-09 21:03:00,
2013-01-09 16:13:00,40.0,33.0,30.13,SSW,211,2.0,-999.0,75,-99.99,,,-99.99,,2013-01-09 21:13:00,
2013-01-09 16:23:00,40.0,33.0,30.13,SSW,211,2.0,-999.0,75,-99.99,,,-99.99,,2013-01-09 21:23:00,
2013-01-09 16:33:00,41.0,34.0,30.13,WSW,239,3.0,-999.0,76,-99.99,,,-99.99,,2013-01-09 21:33:00,
2013-01-09 16:43:00,41.0,34.0,30.13,WSW,239,3.0,-999.0,76,-99.99,,,-99.99,,2013-01-09 21:43:00,
2013-01-09 16:53:00,41.0,34.0,30.12,SW,220,4.0,-999.0,76,-99.99,,,-99.99,,2013-01-09 21:53:00,
2013-01-09 17:03:00,41.0,34.0,30.12,SW,218,4.0,-999.0,75,-99.99,,,-99.99,,2013-01-09 22:03:00,
2013-01-09 17:12:00,41.0,34.0,30.12,SW,218,4.0,-999.0,75,-99.99,,,-99.99,,2013-01-09 22:12:00,
2013-01-09 17:23:00,40.0,33.0,30.13,SW,219,3.0,-999.0,76,-99.99,,,-99.99,,2013-01-09 22:23:00,
2013-01-09 17:33:00,40.0,33.0,30.13,SW,219,3.0,-999.0,76,-99.99,,,-99.99,,2013-01-09 22:33:00,
2013-01-09 17:43:00,40.0,33.0,30.13,SW,219,3.0,-999.0,76,-99.99,,,-99.99,,2013-01-09 22:43:00,
2013-01-09 17:52:00,40.0,33.0,30.11,SW,224,5.0,-999.0,76,-99.99,,,-99.99,,2013-01-09 22:52:00,
2013-01-09 18:03:00,40.0,33.0,30.11,WSW,258,5.0,-999.0,77,-99.99,,,-99.99,,2013-01-09 23:03:00,
2013-01-09 18:13:00,40.0,33.0,30.11,WSW,258,5.0,-999.0,77,-99.99,,,-99.99,,2013-01-09 23:13:00,
2013-01-09 18:23:00,40.0,33.0,30.11,SW,217,4.0,-999.0,77,-99.99,,,-99.99,,2013-01-09 23:23:00,
2013-01-09 18:33:00,40.0,33.0,30.11,WSW,241,5.0,-999.0,77,-99.99,,,-99.99,,2013-01-09 23:33:00,
2013-01-09 18:43:00,40.0,33.0,30.11,WSW,241,5.0,-999.0,77,-99.99,,,-99.99,,2013-01-09 23:43:00,
2013-01-09 18:52:00,40.0,33.0,30.13,WNW,299,2.0,-999.0,77,-99.99,,,-99.99,,2013-01-09 23:52:00,
2013-01-09 19:03:00,40.0,34.0,30.14,SW,231,4.0,-999.0,78,-99.99,,,-99.99,,2013-01-10 00:03:00,
2013-01-09 19:12:00,40.0,34.0,30.14,SW,231,4.0,-999.0,78,-99.99,,,-99.99,,2013-01-10 00:12:00,
2013-01-09 19:22:00,40.0,34.0,30.13,WSW,241,3.0,-999.0,78,-99.99,,,-99.99,,2013-01-10 00:22:00,
2013-01-09 19:32:00,40.0,34.0,30.15,WNW,286,3.0,-999.0,78,-99.99,,,-99.99,,2013-01-10 00:32:00,
2013-01-09 19:42:00,40.0,34.0,30.15,WNW,286,3.0,-999.0,78,-99.99,,,-99.99,,2013-01-10 00:42:00,
2013-01-09 19:52:00,40.0,34.0,30.14,WSW,251,4.0,-999.0,79,-99.99,,,-99.99,,2013-01-10 00:52:00,
2013-01-09 20:02:00,40.0,34.0,30.14,SW,230,5.0,-999.0,79,-99.99,,,-99.99,,2013-01-10 01:02:00,
2013-01-09 20:12:00,40.0,34.0,30.14,SW,230,5.0,-999.0,79,-99.99,,,-99.99,,2013-01-10 01:12:00,
2013-01-09 20:22:00,40.0,34.0,30.14,SW,219,4.0,-999.0,79,-99.99,,,-99.99,,2013-01-10 01:22:00,
2013-01-09 20:33:00,40.0,34.0,30.14,WSW,241,5.0,-999.0,79,-99.99,,,-99.99,,2013-01-10 01:33:00,
2013-01-09 20:43:00,40.0,34.0,30.14,WSW,241,5.0,-999.0,79,-99.99,,,-99.99,,2013-01-10 01:43:00,
2013-01-09 20:52:00,40.0,34.0,30.14,SW,229,4.0,-999.0,79,-99.99,,,-99.99,,2013-01-10 01:52:00,
2013-01-09 21:03:00,40.0,34.0,30.14,SW,232,5.0,-999.0,79,-99.99,,,-99.99,,2013-01-10 02:03:00,
2013-01-09 21:12:00,40.0,34.0,30.14,SW,232,5.0,-999.0,79,-99.99,,,-99.99,,2013-01-10 02:12:00,
2013-01-09 21:22:00,40.0,34.0,30.14,SW,232,5.0,-999.0,79,-99.99,,,-99.99,,2013-01-10 02:22:00,
2013-01-09 21:33:00,40.0,34.0,30.13,WSW,253,3.0,-999.0,79,-99.99,,,-99.99,,2013-01-10 02:33:00,
2013-01-09 21:42:00,40.0,34.0,30.13,WSW,253,3.0,-999.0,79,-99.99,,,-99.99,,2013-01-10 02:42:00,
2013-01-09 21:53:00,40.0,34.0,30.13,WSW,253,3.0,-999.0,79,-99.99,,,-99.99,,2013-01-10 02:53:00,
2013-01-09 22:03:00,40.0,34.0,30.14,WSW,237,4.0,-999.0,78,-99.99,,,-99.99,,2013-01-10 03:03:00,
2013-01-09 22:12:00,40.0,34.0,30.14,WSW,237,4.0,-999.0,78,-99.99,,,-99.99,,2013-01-10 03:12:00,
2013-01-09 22:22:00,40.0,34.0,30.14,WSW,237,4.0,-999.0,78,-99.99,,,-99.99,,2013-01-10 03:22:00,
2013-01-09 22:33:00,40.0,33.0,30.14,WNW,287,2.0,-999.0,77,-99.99,,,-99.99,,2013-01-10 03:33:00,
2013-01-09 22:42:00,40.0,33.0,30.14,WNW,287,2.0,-999.0,77,-99.99,,,-99.99,,2013-01-10 03:42:00,
2013-01-09 22:53:00,40.0,33.0,30.15,West,266,3.0,-999.0,77,-99.99,,,-99.99,,2013-01-10 03:53:00,
2013-01-09 23:02:00,40.0,33.0,30.15,West,267,4.0,-999.0,75,-99.99,,,-99.99,,2013-01-10 04:02:00,
2013-01-09 23:12:00,40.0,33.0,30.15,West,267,4.0,-999.0,75,-99.99,,,-99.99,,2013-01-10 04:12:00,
2013-01-09 23:22:00,41.0,33.0,30.15,NNW,340,5.0,-999.0,73,-99.99,,,-99.99,,2013-01-10 04:22:00,
2013-01-09 23:32:00,41.0,33.0,30.15,SW,231,4.0,-999.0,73,-99.99,,,-99.99,,2013-01-10 04:32:00,
2013-01-09 23:43:00,41.0,33.0,30.15,SW,231,4.0,-999.0,73,-99.99,,,-99.99,,2013-01-10 04:43:00,
2013-01-09 23:52:00,41.0,33.0,30.16,NNW,332,5.0,-999.0,73,-99.99,,,-99.99,,2013-01-10 04:52:00,